Location: Kott?ru
(16.6209°N, 80.6208°E)
Time: 16:30:24
(UTC+00:00)

BEESAT - Visible Passes

Search period start: 28 May 2023 00:00
Search period end: 07 June 2023 00:00
Orbit: 696 x 706 km, 98.5° (Epoch: 28 May)

Date Brightness Start Highest point End Pass type
(mag) Time Alt. Az. Time Alt. Az. Time Alt. Az.
28 May ? 16:26:44 10° NNW 16:27:31 13° NNW 16:27:31 13° NNW visible
29 May ? 15:30:29 10° NNE 15:31:28 16° NNE 15:31:28 16° NNE visible
30 May ? 16:13:04 10° NNW 16:14:16 17° NNW 16:14:16 17° NNW visible
31 May ? 15:17:29 10° NNE 15:18:13 14° NNE 15:18:13 14° NNE visible
01 Jun ? 15:59:37 10° N 16:01:01 19° N 16:01:01 19° N visible
02 Jun ? 15:04:39 10° NE 15:04:58 12° NE 15:04:58 12° NE visible
02 Jun ? 16:43:32 10° NW 16:43:49 11° NW 16:43:49 11° NW visible
03 Jun ? 15:46:18 10° N 15:47:45 20° N 15:47:45 20° N visible
04 Jun ? 16:29:28 10° NNW 16:30:32 15° NW 16:30:32 15° NW visible
05 Jun ? 15:33:07 10° NNE 15:34:28 19° NNE 15:34:28 19° NNE visible
06 Jun ? 16:15:46 10° NNW 16:17:15 18° NNW 16:17:15 18° NNW visible
